Location: Anuling
(14.1239°N, 120.8922°E)
Time: 04:48:37
(UTC+00:00)

Cosmos 968 Rocket - Pass Details

Date: 14 January 2026
Orbit: 737 x 765 km, 74.0° (Epoch: 10 February)

Event Time Altitude Azimuth Distance (km) Brightness Sun altitude
Rises 10:48:24 0° 349° (NNW) 3,172 6.6 -14.9°
Reaches altitude 10° 10:50:45 10° 350° (N) 2,245 5.8 -15.4°
Maximum altitude 10:55:50 79° 76° (ENE) 753 3.3 -16.6°
Drops below altitude 10° 11:00:53 10° 164° (SSE) 2,234 5.9 -17.7°
Sets 11:03:13 0° 165° (SSE) 3,155 6.7 -18.3°
